TimeCDT,TemperatureF,Dew PointF,Humidity,Sea Level PressureIn,VisibilityMPH,Wind Direction,Wind SpeedMPH,Gust SpeedMPH,PrecipitationIn,Events,Conditions,WindDirDegrees,DateUTC
12:15 AM,33.8,23.0,65,30.12,10.0,ENE,8.1,16.1,N/A,,Overcast,60,2014-04-03 05:15:00
12:35 AM,33.8,24.8,70,30.10,10.0,NE,10.4,-,N/A,,Overcast,50,2014-04-03 05:35:00
12:55 AM,33.8,24.8,70,30.08,10.0,ENE,12.7,17.3,N/A,,Overcast,60,2014-04-03 05:55:00
1:15 AM,33.8,24.8,70,30.09,10.0,ENE,10.4,18.4,N/A,,Overcast,70,2014-04-03 06:15:00
1:35 AM,33.8,26.6,75,30.08,10.0,ENE,12.7,20.7,N/A,,Light Drizzle,60,2014-04-03 06:35:00
1:55 AM,35.6,26.6,70,30.07,10.0,ENE,16.1,-,N/A,,Overcast,60,2014-04-03 06:55:00
2:15 AM,35.6,26.6,70,30.07,10.0,ENE,12.7,19.6,N/A,,Overcast,70,2014-04-03 07:15:00
2:35 AM,35.6,24.8,65,30.08,10.0,ENE,10.4,19.6,N/A,,Overcast,70,2014-04-03 07:35:00
2:55 AM,33.8,26.6,75,30.08,10.0,ENE,13.8,17.3,N/A,Rain,Light Rain,70,2014-04-03 07:55:00
3:15 AM,33.8,26.6,75,30.06,10.0,ENE,13.8,-,N/A,Rain,Light Rain,70,2014-04-03 08:15:00
3:35 AM,33.8,26.6,75,30.04,10.0,ENE,15.0,23.0,N/A,,Overcast,70,2014-04-03 08:35:00
3:55 AM,33.8,26.6,75,30.01,10.0,ENE,16.1,21.9,N/A,,Overcast,60,2014-04-03 08:55:00
4:15 AM,33.8,26.6,75,30.01,10.0,ENE,17.3,31.1,N/A,,Overcast,70,2014-04-03 09:15:00
4:35 AM,33.8,26.6,75,30.03,10.0,ENE,16.1,23.0,N/A,,Overcast,70,2014-04-03 09:35:00
4:55 AM,33.8,26.6,75,30.03,10.0,ENE,15.0,21.9,N/A,,Overcast,60,2014-04-03 09:55:00
5:15 AM,33.8,26.6,75,30.02,10.0,ENE,13.8,23.0,N/A,,Overcast,60,2014-04-03 10:15:00
5:35 AM,33.8,26.6,75,30.01,10.0,ENE,13.8,25.3,N/A,,Overcast,70,2014-04-03 10:35:00
5:45 AM,33.8,24.8,70,30.01,10.0,ENE,17.3,-,N/A,,Overcast,60,2014-04-03 10:45:00
6:45 AM,33.8,24.8,70,30.02,10.0,ENE,11.5,23.0,N/A,,Overcast,60,2014-04-03 11:45:00
7:45 AM,33.8,24.8,70,29.98,10.0,ENE,17.3,28.8,N/A,,Overcast,70,2014-04-03 12:45:00
8:45 AM,33.8,26.6,75,29.98,10.0,East,15.0,-,N/A,,Overcast,80,2014-04-03 13:45:00
9:45 AM,33.8,26.6,75,29.98,10.0,East,17.3,28.8,N/A,,Overcast,80,2014-04-03 14:45:00
10:45 AM,32.0,30.2,93,29.94,1.8,East,21.9,29.9,N/A,Rain,Light Rain,80,2014-04-03 15:45:00
11:45 AM,30.2,30.2,100,29.95,4.0,East,15.0,26.5,N/A,Rain,Freezing Rain,80,2014-04-03 16:45:00
12:45 PM,30.2,30.2,100,29.93,10.0,ENE,11.5,23.0,N/A,,Overcast,70,2014-04-03 17:45:00
1:00 PM,32.0,28.4,87,29.92,10.0,ENE,11.5,23.0,N/A,,Overcast,70,2014-04-03 18:00:00
1:45 PM,32.0,26.6,80,29.91,10.0,ENE,18.4,26.5,N/A,,Overcast,70,2014-04-03 18:45:00
2:45 PM,32.0,26.6,80,29.87,10.0,ENE,17.3,24.2,N/A,,Overcast,60,2014-04-03 19:45:00
3:45 PM,33.8,23.0,65,29.86,10.0,ENE,17.3,24.2,N/A,,Overcast,60,2014-04-03 20:45:00
4:45 PM,33.8,23.0,65,29.85,10.0,ENE,17.3,24.2,N/A,,Overcast,60,2014-04-03 21:45:00
5:45 PM,33.8,23.0,65,29.85,10.0,ENE,17.3,24.2,N/A,,Overcast,60,2014-04-03 22:45:00
6:45 PM,33.8,23.0,65,29.83,10.0,ENE,17.3,24.2,N/A,,Overcast,60,2014-04-03 23:45:00
9:15 PM,33.8,28.4,81,29.81,10.0,East,12.7,-,N/A,,Overcast,90,2014-04-04 02:15:00
9:35 PM,33.8,30.2,87,29.78,10.0,East,13.8,18.4,N/A,,Overcast,90,2014-04-04 02:35:00
11:15 PM,32.0,30.2,93,29.73,10.0,East,17.3,21.9,N/A,,Overcast,100,2014-04-04 04:15:00
11:55 PM,32.0,30.2,93,29.71,10.0,East,13.8,-,N/A,,Overcast,90,2014-04-04 04:55:00